Flag for Germany Weather past 2 weeks in Leverkusen, North Rhine-Westphalia, Germany

Now
72 °F

Passing clouds.


Feels Like: 75 °F
Forecast: 60 / 77 °F
Wind: 7 mph from Northwest

Location: Koeln / Bonn

Current Time: Jul 26, 2014 at 3:32:44 PM

Latest Report: Jul 26, 2014 at 2:50 PM


Visibility: N/A

Pressure: 29.95 "Hg

Humidity: 65%

Dew point: 59 °F

Location of LeverkusenLocation

Historic Weather in Leverkusen — Graph

°F

Leverkusen temperature yesterday

Maximum temperature yesterday: 77 °F (at 5:50 PM)
Minimum temperature yesterday: 54 °F (at 4:20 AM)
Average temperature yesterday: 65 °F

Past Weeks' High & Low Weather Summary

 TemperatureHumidityPressure
High91 °F (Jul 19, 2:50 PM)100% (Jul 12, 7:50 AM)30.18 "Hg (Jul 12, 7:50 AM)
Low54 °F (Jul 25, 4:20 AM)26% (Jul 19, 2:50 PM)29.74 "Hg (Jul 13, 5:20 PM)
Average70 °F74%29.97 "Hg
* Reported Jul 11 2:20 PM — Jul 26 2:20 PM, Leverkusen, Weather by CustomWeather, © 2014

Note: Actual official high and low records may vary slightly from our data, if they occured in-between our weather recording intervals... More about our weather records

Advertising

Leverkusen weather history for previous 24 hours

 ConditionsComfort  
Time TempWeatherWind HumidityBarometerVisibility
2:20 PM
Jul 26
72 °FPassing clouds.6 mph69%29.95 "Hg6 mi
1:50 PM72 °FPartly sunny.6 mph69%29.95 "Hg5 mi
1:20 PM70 °FPartly sunny.7 mph73%29.95 "Hg5 mi
12:50 PM68 °FPartly sunny.7 mph78%29.95 "Hg4 mi
12:20 PM68 °FPartly sunny.3 mph78%29.95 "Hg4 mi
11:50 AM66 °FPartly sunny.3 mph83%29.95 "Hg4 mi
11:20 AM66 °FFog.1 mph83%29.95 "Hg3 mi
10:50 AM64 °FFog.3 mph88%29.95 "Hg2 mi
10:20 AM64 °FFog.1 mph88%29.95 "Hg2 mi
9:50 AM63 °FFog.3 mph94%29.95 "Hg1 mi
9:20 AM63 °FFog.5 mph94%29.95 "Hg1 mi
8:50 AM63 °FFog.3 mph94%29.95 "Hg1 mi
8:20 AM61 °FFog.2 mph100%29.95 "Hg1 mi
7:50 AM61 °FFog.3 mph94%29.92 "Hg1 mi
7:20 AM61 °FFog.5 mph94%29.92 "Hg1 mi
6:50 AM61 °FFog.3 mph94%29.92 "Hg2 mi
6:20 AM59 °FFog.2 mph100%29.92 "Hg2 mi
5:50 AM59 °FFog.2 mph94%29.92 "Hg2 mi
5:20 AM59 °FFog.5 mph94%29.92 "Hg5 mi
4:50 AM59 °FClear.3 mph94%29.92 "Hg10 mi
4:20 AM59 °FClear.3 mph94%29.92 "Hg10 mi
3:50 AM59 °FClear.5 mph94%29.92 "Hg10 mi
3:20 AM59 °FClear.2 mph94%29.92 "Hg10 mi
2:50 AM59 °FClear.3 mph100%29.92 "Hg10 mi
2:20 AM61 °FClear.2 mph88%29.92 "Hg10 mi
1:50 AM61 °FClear.2 mph94%29.92 "Hg10 mi
1:20 AM61 °FClear.1 mph94%29.92 "Hg10 mi
12:50 AM63 °FClear.2 mph88%29.92 "Hg10 mi
12:20 AM63 °FClear.1 mph94%29.92 "Hg10 mi
11:50 PM
Jul 25
64 °FClear.2 mph88%29.92 "Hg10 mi
11:20 PM64 °FClear.2 mph88%29.92 "Hg10 mi
10:50 PM64 °FClear.2 mph88%29.92 "Hg10 mi
10:20 PM66 °FSunny.6 mph83%29.92 "Hg10 mi
9:50 PM68 °FScattered clouds.6 mph78%29.92 "HgN/A
9:20 PM68 °FPassing clouds.5 mph78%29.89 "HgN/A
8:50 PM70 °FPassing clouds.5 mph73%29.89 "HgN/A
8:20 PM72 °FScattered clouds.6 mph69%29.89 "HgN/A
7:50 PM73 °FScattered clouds.6 mph61%29.89 "HgN/A
7:20 PM73 °FScattered clouds.8 mph57%29.89 "HgN/A
6:50 PM75 °FScattered clouds.7 mph54%29.89 "HgN/A
6:20 PM75 °FScattered clouds.7 mph54%29.89 "HgN/A
5:50 PM77 °FScattered clouds.5 mph51%29.89 "HgN/A
5:20 PM75 °FScattered clouds.5 mph54%29.89 "HgN/A
4:50 PM75 °FScattered clouds.6 mph54%29.89 "HgN/A
4:20 PM75 °FScattered clouds.1 mph54%29.92 "HgN/A
3:50 PM75 °FScattered clouds.5 mph54%29.92 "HgN/A
3:20 PM75 °FScattered clouds.6 mph57%29.92 "HgN/A
Weather by CustomWeather, © 2014

See weather overviewHow to use our weather pages